,,PA_Meas_PMT16A,,PR_Meas_QMR101_102,,RH_Meas_QMH101,,SR_Meas_QMS101,,TA_Meas_QMH101,,GenWind,,GenWind,
time,status,PA,status,PR,status,RH,status,SR,status,TA,status,DirAvg,status,SpdAvg,
2010-06-29, 00:00:04,VALID,917.185,VALID,0,VALID,97.2062,VALID,0,VALID,19.1568,VALID,149,VALID,1.09922,
2010-06-29, 00:01:04,VALID,917.15,VALID,0,VALID,97.1681,VALID,0,VALID,19.1373,VALID,130,VALID,1.81484,
2010-06-29, 00:02:04,VALID,917.131,VALID,0,VALID,97.1604,VALID,0,VALID,19.1164,VALID,126,VALID,0.748828,
2010-06-29, 00:03:04,VALID,917.126,VALID,0,VALID,97.1528,VALID,0,VALID,19.1568,VALID,142,VALID,0.944141,
2010-06-29, 00:04:04,VALID,917.123,VALID,0,VALID,97.1528,VALID,0,VALID,19.1373,VALID,142,VALID,1.53906,
2010-06-29, 00:05:04,VALID,917.16,VALID,0,VALID,97.1147,VALID,0,VALID,19.1568,VALID,131,VALID,1.62969,
2010-06-29, 00:06:04,VALID,917.125,VALID,0,VALID,97.0994,VALID,0.107441,VALID,19.1763,VALID,141,VALID,0.926953,
2010-06-29, 00:07:04,VALID,917.11,VALID,0,VALID,97.0613,VALID,0,VALID,19.1568,VALID,141,VALID,0.848437,
2010-06-29, 00:08:04,VALID,917.106,VALID,0,VALID,97.0308,VALID,0,VALID,19.1568,VALID,147,VALID,0.807422,
2010-06-29, 00:09:04,VALID,917.086,VALID,0,VALID,97.008,VALID,0.107441,VALID,19.1359,VALID,140,VALID,1.36836,
2010-06-29, 00:10:04,VALID,917.075,VALID,0,VALID,96.9851,VALID,0,VALID,19.1554,VALID,153,VALID,0.970312,
2010-06-29, 00:11:04,VALID,917.081,VALID,0,VALID,96.9089,VALID,0,VALID,19.1568,VALID,153,VALID,1.51055,
2010-06-29, 00:12:04,VALID,917.082,VALID,0,VALID,96.8707,VALID,0,VALID,19.1763,VALID,153,VALID,1.12109,
2010-06-29, 00:13:04,VALID,917.053,VALID,0,VALID,96.8555,VALID,0,VALID,19.1763,VALID,153,VALID,1.0457,
2010-06-29, 00:14:04,VALID,917.074,VALID,0,VALID,96.825,VALID,0,VALID,19.1568,VALID,153,VALID,0.749609,
2010-06-29, 00:15:04,VALID,917.045,VALID,0,VALID,96.8555,VALID,0,VALID,19.1763,VALID,153,VALID,0.477734,
2010-06-29, 00:16:04,VALID,917.061,VALID,0,VALID,96.8098,VALID,0,VALID,19.1958,VALID,153,VALID,1.35469,
2010-06-29, 00:17:04,VALID,917.065,VALID,0,VALID,96.825,VALID,0,VALID,19.1763,VALID,153,VALID,1.30508,
2010-06-29, 00:18:04,VALID,917.049,VALID,0,VALID,96.8555,VALID,0,VALID,19.1763,VALID,154,VALID,1.34727,
2010-06-29, 00:19:04,VALID,917.028,VALID,0,VALID,96.8784,VALID,0,VALID,19.1749,VALID,131,VALID,1.07031,
2010-06-29, 00:20:04,VALID,917.045,VALID,0,VALID,96.8707,VALID,0,VALID,19.1554,VALID,135,VALID,0.637891,
2010-06-29, 00:21:04,VALID,916.995,VALID,0,VALID,96.8403,VALID,0,VALID,19.1568,VALID,151,VALID,1.37031,
2010-06-29, 00:22:04,VALID,916.994,VALID,0,VALID,96.8631,VALID,0,VALID,19.1568,VALID,152,VALID,1.28789,
2010-06-29, 00:23:04,VALID,916.985,VALID,0,VALID,96.8631,VALID,0,VALID,19.1359,VALID,147,VALID,1.43047,
2010-06-29, 00:24:04,VALID,916.975,VALID,0,VALID,96.886,VALID,0,VALID,19.1373,VALID,140,VALID,0.805078,
2010-06-29, 00:25:04,VALID,916.971,VALID,0,VALID,96.8707,VALID,0,VALID,19.1373,VALID,140,VALID,1.25859,
2010-06-29, 00:26:04,VALID,916.929,VALID,0,VALID,96.8555,VALID,0,VALID,19.0969,VALID,163,VALID,1.49883,
2010-06-29, 00:27:04,VALID,916.913,VALID,0,VALID,96.8707,VALID,0,VALID,19.1178,VALID,141,VALID,1.11758,
2010-06-29, 00:28:04,VALID,916.886,VALID,0,VALID,96.8326,VALID,0,VALID,19.1178,VALID,150,VALID,0.970312,
2010-06-29, 00:29:04,VALID,916.874,VALID,0,VALID,96.8479,VALID,0,VALID,19.0969,VALID,150,VALID,0.741797,
2010-06-29, 00:30:04,VALID,916.836,VALID,0,VALID,96.8555,VALID,0,VALID,19.1164,VALID,150,VALID,0.967188,
2010-06-29, 00:31:04,VALID,916.798,VALID,0,VALID,96.8631,VALID,0,VALID,19.0969,VALID,150,VALID,0.903906,
2010-06-29, 00:32:04,VALID,916.785,VALID,0,VALID,96.8326,VALID,0,VALID,19.0983,VALID,144,VALID,1.03789,
2010-06-29, 00:33:04,VALID,916.762,VALID,0,VALID,96.7869,VALID,0,VALID,19.0983,VALID,134,VALID,1.15273,
2010-06-29, 00:34:04,VALID,916.786,VALID,0,VALID,96.7183,VALID,0,VALID,19.1178,VALID,144,VALID,1.08984,
2010-06-29, 00:35:04,VALID,916.745,VALID,0,VALID,96.7183,VALID,0,VALID,19.1178,VALID,144,VALID,1.29961,
2010-06-29, 00:36:04,VALID,916.769,VALID,0,VALID,96.6573,VALID,0,VALID,19.0788,VALID,143,VALID,1.49531,
2010-06-29, 00:37:04,VALID,916.759,VALID,0,VALID,96.5963,VALID,0,VALID,19.0788,VALID,144,VALID,1.02031,
2010-06-29, 00:38:04,VALID,916.766,VALID,0,VALID,96.5734,VALID,0,VALID,19.0593,VALID,144,VALID,1.2457,
2010-06-29, 00:39:04,VALID,916.775,VALID,0,VALID,96.5277,VALID,0,VALID,19.0579,VALID,144,VALID,0.666406,
2010-06-29, 00:40:04,VALID,916.722,VALID,0,VALID,96.4972,VALID,0,VALID,19.0593,VALID,143,VALID,1.49336,
2010-06-29, 00:41:04,VALID,916.729,VALID,0,VALID,96.4591,VALID,0,VALID,19.0593,VALID,136,VALID,1.46172,
2010-06-29, 00:42:04,VALID,916.724,VALID,0,VALID,96.3905,VALID,0,VALID,19.0593,VALID,151,VALID,1.35938,
2010-06-29, 00:43:04,VALID,916.698,VALID,0,VALID,96.3524,VALID,0,VALID,19.0593,VALID,171,VALID,1.1,
2010-06-29, 00:44:04,VALID,916.684,VALID,0,VALID,96.3371,VALID,0,VALID,19.0593,VALID,156,VALID,0.958203,
2010-06-29, 00:45:04,VALID,916.655,VALID,0,VALID,96.3447,VALID,0,VALID,19.0398,VALID,122,VALID,1.24141,
2010-06-29, 00:46:04,VALID,916.617,VALID,0,VALID,96.3066,VALID,0.107441,VALID,19.0593,VALID,116,VALID,1.0707,
2010-06-29, 00:47:04,VALID,916.596,VALID,0,VALID,96.3447,VALID,0,VALID,19.0189,VALID,117,VALID,1.15117,
2010-06-29, 00:48:04,VALID,916.594,VALID,0,VALID,96.3142,VALID,0,VALID,19.0398,VALID,144,VALID,1.47305,
2010-06-29, 00:49:04,VALID,916.586,VALID,0,VALID,96.3219,VALID,0,VALID,19.0384,VALID,128,VALID,1.33633,
2010-06-29, 00:50:04,VALID,916.556,VALID,0,VALID,96.36,VALID,0,VALID,19.0384,VALID,163,VALID,1.00078,
2010-06-29, 00:51:04,VALID,916.567,VALID,0,VALID,96.4515,VALID,0,VALID,19.0593,VALID,140,VALID,0.886719,
2010-06-29, 00:52:04,VALID,916.584,VALID,0,VALID,96.4667,VALID,0,VALID,19.0788,VALID,147,VALID,1.18984,
2010-06-29, 00:53:04,VALID,916.587,VALID,0,VALID,96.4972,VALID,0,VALID,19.0593,VALID,132,VALID,1.06562,
2010-06-29, 00:54:04,VALID,916.597,VALID,0,VALID,96.5277,VALID,0,VALID,19.0593,VALID,131,VALID,0.841016,
2010-06-29, 00:55:04,VALID,916.593,VALID,0,VALID,96.5582,VALID,0,VALID,19.0593,VALID,133,VALID,0.727344,
2010-06-29, 00:56:04,VALID,916.595,VALID,0,VALID,96.5734,VALID,0,VALID,19.0593,VALID,123,VALID,1.32695,
2010-06-29, 00:57:04,VALID,916.619,VALID,0,VALID,96.6115,VALID,0,VALID,19.0593,VALID,151,VALID,0.997266,
2010-06-29, 00:58:04,VALID,916.602,VALID,0,VALID,96.6268,VALID,0,VALID,19.0788,VALID,140,VALID,1.09961,
2010-06-29, 00:59:04,VALID,916.644,VALID,0,VALID,96.6802,VALID,0,VALID,19.0384,VALID,140,VALID,1.10039,
2010-06-29, 01:00:04,VALID,916.634,VALID,0,VALID,96.7411,VALID,0,VALID,19.0593,VALID,140,VALID,0.847656,
2010-06-29, 01:01:04,VALID,916.631,VALID,0,VALID,96.7107,VALID,0,VALID,19.0398,VALID,131,VALID,0.880078,
2010-06-29, 01:02:04,VALID,916.626,VALID,0,VALID,96.7259,VALID,0,VALID,19.0384,VALID,121,VALID,1.37539,
2010-06-29, 01:03:04,VALID,916.644,VALID,0,VALID,96.7335,VALID,0,VALID,19.0593,VALID,116,VALID,1.06406,
2010-06-29, 01:04:04,VALID,916.642,VALID,0,VALID,96.7183,VALID,0,VALID,19.0593,VALID,117,VALID,1.27344,
2010-06-29, 01:05:04,VALID,916.649,VALID,0,VALID,96.7335,VALID,0,VALID,19.0593,VALID,117,VALID,1.23281,
2010-06-29, 01:06:04,VALID,916.628,VALID,0,VALID,96.7107,VALID,0,VALID,19.0593,VALID,117,VALID,1.15742,
2010-06-29, 01:07:04,VALID,916.626,VALID,0,VALID,96.7107,VALID,0,VALID,19.0803,VALID,117,VALID,0.663281,
2010-06-29, 01:08:04,VALID,916.6,VALID,0,VALID,96.703,VALID,0,VALID,19.0593,VALID,118,VALID,0.995313,
2010-06-29, 01:09:04,VALID,916.585,VALID,0,VALID,96.6954,VALID,0,VALID,19.0398,VALID,117,VALID,0.842969,
2010-06-29, 01:10:04,VALID,916.599,VALID,0,VALID,96.7107,VALID,0,VALID,19.0608,VALID,117,VALID,0.580469,
2010-06-29, 01:11:04,VALID,916.572,VALID,0,VALID,96.7107,VALID,0,VALID,19.0398,VALID,117,VALID,0.513672,
2010-06-29, 01:12:04,VALID,916.536,VALID,0,VALID,96.7183,VALID,0,VALID,19.0203,VALID,117,VALID,0.848437,
2010-06-29, 01:13:04,VALID,916.522,VALID,0,VALID,96.7411,VALID,0,VALID,19.0008,VALID,117,VALID,1.08008,
2010-06-29, 01:14:04,VALID,916.526,VALID,0,VALID,96.7488,VALID,0,VALID,19.0008,VALID,117,VALID,0.805469,
2010-06-29, 01:15:04,VALID,916.488,VALID,0,VALID,96.7411,VALID,0,VALID,19.0008,VALID,117,VALID,0.801953,
2010-06-29, 01:16:04,VALID,916.454,VALID,0,VALID,96.7564,VALID,0,VALID,18.9604,VALID,117,VALID,0.767578,
2010-06-29, 01:17:04,VALID,916.429,VALID,0,VALID,96.764,VALID,0,VALID,18.9619,VALID,117,VALID,0.775391,
2010-06-29, 01:18:04,VALID,916.417,VALID,0,VALID,96.7564,VALID,0,VALID,18.9424,VALID,117,VALID,1.16719,
2010-06-29, 01:19:04,VALID,916.378,VALID,0,VALID,96.7564,VALID,0,VALID,18.9424,VALID,117,VALID,1.24453,
2010-06-29, 01:20:04,VALID,916.354,VALID,0,VALID,96.7335,VALID,0,VALID,18.9619,VALID,120,VALID,1.19727,
2010-06-29, 01:21:04,VALID,916.306,VALID,0,VALID,96.7335,VALID,0,VALID,18.9619,VALID,135,VALID,1.06484,
2010-06-29, 01:22:04,VALID,916.265,VALID,0,VALID,96.7107,VALID,0,VALID,18.9619,VALID,135,VALID,0.972656,
2010-06-29, 01:23:04,VALID,916.254,VALID,0,VALID,96.6954,VALID,0,VALID,18.9424,VALID,135,VALID,0.771875,
2010-06-29, 01:24:04,VALID,916.216,VALID,0,VALID,96.6725,VALID,0,VALID,18.9424,VALID,135,VALID,1.17656,
2010-06-29, 01:25:04,VALID,916.22,VALID,0,VALID,96.703,VALID,0,VALID,18.9619,VALID,135,VALID,0.848437,
2010-06-29, 01:26:04,VALID,916.241,VALID,0,VALID,96.6497,VALID,0,VALID,18.9424,VALID,135,VALID,1.45547,
2010-06-29, 01:27:04,VALID,916.223,VALID,0,VALID,96.6649,VALID,0,VALID,18.9214,VALID,106,VALID,1.03633,
2010-06-29, 01:28:04,VALID,916.206,VALID,0,VALID,96.6039,VALID,0,VALID,18.9229,VALID,106,VALID,1.35391,
2010-06-29, 01:29:04,VALID,916.209,VALID,0,VALID,96.642,VALID,0,VALID,18.9424,VALID,106,VALID,1.46445,
2010-06-29, 01:30:04,VALID,916.183,VALID,0,VALID,96.642,VALID,0,VALID,18.9424,VALID,106,VALID,1.04883,
2010-06-29, 01:31:04,VALID,916.19,VALID,0,VALID,96.6039,VALID,0,VALID,18.9229,VALID,106,VALID,1.21602,
2010-06-29, 01:32:04,VALID,916.188,VALID,0,VALID,96.6497,VALID,0,VALID,18.9229,VALID,106,VALID,0.883203,
2010-06-29, 01:33:04,VALID,916.144,VALID,0,VALID,96.6115,VALID,0,VALID,18.9229,VALID,106,VALID,0.948047,
2010-06-29, 01:34:04,VALID,916.143,VALID,0,VALID,96.5811,VALID,0,VALID,18.8824,VALID,106,VALID,1.08594,
2010-06-29, 01:35:04,VALID,916.079,VALID,0,VALID,96.6268,VALID,0,VALID,18.9034,VALID,106,VALID,0.795703,
2010-06-29, 01:36:04,VALID,916.069,VALID,0,VALID,96.6039,VALID,0,VALID,18.8839,VALID,106,VALID,1.16758,
2010-06-29, 01:37:04,VALID,916.032,VALID,0,VALID,96.6344,VALID,0,VALID,18.8629,VALID,106,VALID,0.711719,
2010-06-29, 01:38:04,VALID,916.029,VALID,0,VALID,96.6268,VALID,0,VALID,18.8839,VALID,106,VALID,0.885547,
2010-06-29, 01:39:04,VALID,915.986,VALID,0,VALID,96.6344,VALID,0,VALID,18.8839,VALID,106,VALID,0.894141,
2010-06-29, 01:40:04,VALID,915.938,VALID,0,VALID,96.6268,VALID,0,VALID,18.8644,VALID,106,VALID,0.657812,
2010-06-29, 01:41:04,VALID,915.885,VALID,0,VALID,96.6497,VALID,0,VALID,18.8449,VALID,106,VALID,0.920703,
2010-06-29, 01:42:04,VALID,915.864,VALID,0,VALID,96.6344,VALID,0,VALID,18.8449,VALID,106,VALID,0.941406,
2010-06-29, 01:43:04,VALID,915.863,VALID,0,VALID,96.6192,VALID,0,VALID,18.8449,VALID,106,VALID,0.966016,
2010-06-29, 01:44:04,VALID,915.797,VALID,0,VALID,96.5734,VALID,0,VALID,18.8449,VALID,107,VALID,0.928906,
2010-06-29, 01:45:04,VALID,915.782,VALID,0,VALID,96.5887,VALID,0,VALID,18.8449,VALID,107,VALID,0.733203,
2010-06-29, 01:46:04,VALID,915.765,VALID,0,VALID,96.5124,VALID,0,VALID,18.8449,VALID,107,VALID,0.914453,
2010-06-29, 01:47:04,VALID,915.74,VALID,0,VALID,96.4515,VALID,0,VALID,18.8254,VALID,107,VALID,1.09375,
2010-06-29, 01:48:04,VALID,915.747,VALID,0,VALID,96.4591,VALID,0,VALID,18.8658,VALID,107,VALID,0.88125,
2010-06-29, 01:49:04,VALID,915.693,VALID,0,VALID,96.4133,VALID,0,VALID,18.8658,VALID,107,VALID,0.928125,
2010-06-29, 01:50:04,VALID,915.699,VALID,0,VALID,96.421,VALID,0,VALID,18.8463,VALID,107,VALID,0.682031,
2010-06-29, 01:51:04,VALID,915.714,VALID,0,VALID,96.4133,VALID,0,VALID,18.8254,VALID,107,VALID,0.6875,
2010-06-29, 01:52:04,VALID,915.727,VALID,0,VALID,96.3981,VALID,0,VALID,18.8254,VALID,107,VALID,0.745313,
2010-06-29, 01:53:04,VALID,915.721,VALID,0,VALID,96.4133,VALID,0,VALID,18.8254,VALID,108,VALID,0.522266,
2010-06-29, 01:54:04,VALID,915.738,VALID,0,VALID,96.3905,VALID,0,VALID,18.8254,VALID,108,VALID,0.642187,
2010-06-29, 01:55:04,VALID,915.767,VALID,0,VALID,96.3676,VALID,0,VALID,18.8073,VALID,107,VALID,0.603906,
2010-06-29, 01:56:04,VALID,915.779,VALID,0,VALID,96.4286,VALID,0,VALID,18.7864,VALID,108,VALID,0.567969,
2010-06-29, 01:57:04,VALID,915.768,VALID,0,VALID,96.4515,VALID,0,VALID,18.7864,VALID,108,VALID,0.203906,
2010-06-29, 01:58:04,VALID,915.781,VALID,0,VALID,96.4286,VALID,0,VALID,18.7864,VALID,107,VALID,0.0585938,
2010-06-29, 01:59:04,VALID,915.814,VALID,0,VALID,96.3905,VALID,0,VALID,18.7669,VALID,108,VALID,0.276953,
2010-06-29, 02:00:04,VALID,915.807,VALID,0,VALID,96.3981,VALID,0,VALID,18.7669,VALID,108,VALID,0.452344,
2010-06-29, 02:01:04,VALID,915.811,VALID,0,VALID,96.3371,VALID,0,VALID,18.7474,VALID,107,VALID,0.567187,
2010-06-29, 02:02:04,VALID,915.819,VALID,0,VALID,96.3447,VALID,0,VALID,18.7279,VALID,107,VALID,0.493359,
2010-06-29, 02:03:04,VALID,915.806,VALID,0,VALID,96.3905,VALID,0,VALID,18.7279,VALID,108,VALID,0.4125,
2010-06-29, 02:04:04,VALID,915.813,VALID,0,VALID,96.4133,VALID,0,VALID,18.7293,VALID,107,VALID,0.682813,
2010-06-29, 02:05:04,VALID,915.779,VALID,0,VALID,96.4743,VALID,0,VALID,18.7084,VALID,108,VALID,0.487109,
2010-06-29, 02:06:04,VALID,915.786,VALID,0,VALID,96.5048,VALID,0,VALID,18.7293,VALID,108,VALID,0.898438,
2010-06-29, 02:07:04,VALID,915.784,VALID,0,VALID,96.6268,VALID,0,VALID,18.7084,VALID,108,VALID,0.662109,
2010-06-29, 02:08:04,VALID,915.762,VALID,0,VALID,96.6725,VALID,0,VALID,18.7084,VALID,107,VALID,0.649609,
2010-06-29, 02:09:04,VALID,915.744,VALID,0,VALID,96.7107,VALID,0,VALID,18.7084,VALID,107,VALID,0.644922,
2010-06-29, 02:10:04,VALID,915.729,VALID,0,VALID,96.7716,VALID,0,VALID,18.7084,VALID,108,VALID,0.503906,
2010-06-29, 02:11:04,VALID,915.68,VALID,0,VALID,96.7793,VALID,0,VALID,18.6889,VALID,107,VALID,0.483594,
2010-06-29, 02:12:04,VALID,915.662,VALID,0,VALID,96.8174,VALID,0,VALID,18.6694,VALID,107,VALID,0.890234,
2010-06-29, 02:13:04,VALID,915.669,VALID,0,VALID,96.886,VALID,0,VALID,18.6694,VALID,108,VALID,0.850781,
2010-06-29, 02:14:04,VALID,915.631,VALID,0,VALID,96.9012,VALID,0,VALID,18.6694,VALID,108,VALID,1.05898,
2010-06-29, 02:15:04,VALID,915.626,VALID,0,VALID,96.9089,VALID,0,VALID,18.6499,VALID,108,VALID,0.992578,
2010-06-29, 02:16:04,VALID,915.635,VALID,0,VALID,96.9317,VALID,0,VALID,18.6513,VALID,108,VALID,1.07891,
2010-06-29, 02:17:04,VALID,915.599,VALID,0,VALID,96.9775,VALID,0,VALID,18.6304,VALID,107,VALID,0.727734,
2010-06-29, 02:18:04,VALID,915.667,VALID,0,VALID,96.9927,VALID,0,VALID,18.6319,VALID,108,VALID,0.283594,
2010-06-29, 02:19:04,VALID,915.652,VALID,0,VALID,97.0537,VALID,0,VALID,18.6304,VALID,107,VALID,0.408984,
2010-06-29, 02:20:04,VALID,915.655,VALID,0,VALID,97.0385,VALID,0,VALID,18.6304,VALID,107,VALID,0.510547,
2010-06-29, 02:21:04,VALID,915.665,VALID,0,VALID,97.0766,VALID,0,VALID,18.6499,VALID,108,VALID,0.280859,
2010-06-29, 02:22:04,VALID,915.659,VALID,0,VALID,97.1071,VALID,0,VALID,18.6694,VALID,108,VALID,0.632422,
2010-06-29, 02:23:04,VALID,915.703,VALID,0,VALID,97.069,VALID,0,VALID,18.6513,VALID,108,VALID,0.868359,
2010-06-29, 02:24:04,VALID,915.699,VALID,0,VALID,97.0994,VALID,0,VALID,18.6304,VALID,107,VALID,1.02031,
2010-06-29, 02:25:04,VALID,915.704,VALID,0,VALID,97.0918,VALID,0,VALID,18.6095,VALID,108,VALID,1.02656,
2010-06-29, 02:26:04,VALID,915.661,VALID,0,VALID,97.0766,VALID,0,VALID,18.5914,VALID,108,VALID,1.02539,
2010-06-29, 02:27:05,VALID,915.699,VALID,0,VALID,97.0766,VALID,0,VALID,18.5914,VALID,107,VALID,0.803906,
2010-06-29, 02:28:05,VALID,915.685,VALID,0,VALID,97.1071,VALID,0,VALID,18.6124,VALID,107,VALID,0.766016,
2010-06-29, 02:29:05,VALID,915.667,VALID,0,VALID,97.1071,VALID,0,VALID,18.5929,VALID,107,VALID,0.966797,
2010-06-29, 02:30:04,VALID,915.652,VALID,0,VALID,97.1071,VALID,0,VALID,18.572,VALID,107,VALID,1.16562,
2010-06-29, 02:31:05,VALID,915.608,VALID,0,VALID,97.0994,VALID,0,VALID,18.572,VALID,108,VALID,1.04062,
2010-06-29, 02:32:05,VALID,915.61,VALID,0,VALID,97.0994,VALID,0,VALID,18.572,VALID,134,VALID,1.36992,
2010-06-29, 02:33:05,VALID,915.561,VALID,0,VALID,97.0994,VALID,0,VALID,18.572,VALID,147,VALID,1.02578,
2010-06-29, 02:34:05,VALID,915.56,VALID,0,VALID,97.1071,VALID,0,VALID,18.5914,VALID,147,VALID,0.925391,
2010-06-29, 02:35:05,VALID,915.557,VALID,0,VALID,97.1147,VALID,0,VALID,18.6109,VALID,147,VALID,0.933984,
2010-06-29, 02:36:05,VALID,915.555,VALID,0,VALID,97.0613,VALID,0,VALID,18.5914,VALID,147,VALID,0.959766,
2010-06-29, 02:37:05,VALID,915.55,VALID,0,VALID,97.0766,VALID,0,VALID,18.6109,VALID,147,VALID,0.901172,
2010-06-29, 02:38:05,VALID,915.537,VALID,0,VALID,97.0385,VALID,0,VALID,18.6109,VALID,147,VALID,0.847266,
2010-06-29, 02:39:05,VALID,915.534,VALID,0,VALID,97.0003,VALID,0,VALID,18.6319,VALID,147,VALID,1.15117,
2010-06-29, 02:40:05,VALID,915.546,VALID,0,VALID,96.9165,VALID,0,VALID,18.6304,VALID,147,VALID,0.833203,
2010-06-29, 02:41:05,VALID,915.563,VALID,0,VALID,96.8631,VALID,0,VALID,18.6109,VALID,139,VALID,1.08281,
2010-06-29, 02:42:05,VALID,915.534,VALID,0,VALID,96.8174,VALID,0,VALID,18.6124,VALID,139,VALID,1.38945,
2010-06-29, 02:43:05,VALID,915.505,VALID,0,VALID,96.7869,VALID,0,VALID,18.6319,VALID,139,VALID,1.25195,
2010-06-29, 02:44:05,VALID,915.523,VALID,0,VALID,96.6268,VALID,0,VALID,18.6124,VALID,137,VALID,1.37422,
2010-06-29, 02:45:05,VALID,915.501,VALID,0,VALID,96.5353,VALID,0,VALID,18.5914,VALID,97,VALID,1.40625,
2010-06-29, 02:46:05,VALID,915.508,VALID,0,VALID,96.4057,VALID,0,VALID,18.5914,VALID,98,VALID,1.37852,
2010-06-29, 02:47:05,VALID,915.46,VALID,0,VALID,96.3219,VALID,0,VALID,18.5914,VALID,116,VALID,1.2332,
2010-06-29, 02:48:05,VALID,915.483,VALID,0,VALID,96.2228,VALID,0,VALID,18.5929,VALID,103,VALID,0.915234,
2010-06-29, 02:49:05,VALID,915.475,VALID,0,VALID,96.1999,VALID,0,VALID,18.572,VALID,103,VALID,0.888281,
2010-06-29, 02:50:05,VALID,915.454,VALID,0,VALID,96.2609,VALID,0,VALID,18.5929,VALID,103,VALID,0.261719,
2010-06-29, 02:51:05,VALID,915.431,VALID,0,VALID,96.3447,VALID,0,VALID,18.572,VALID,103,VALID,0.435937,
2010-06-29, 02:52:05,VALID,915.452,VALID,0,VALID,96.4362,VALID,0,VALID,18.572,VALID,103,VALID,0.578516,
2010-06-29, 02:53:05,VALID,915.414,VALID,0,VALID,96.4896,VALID,0,VALID,18.5914,VALID,103,VALID,0.399609,
2010-06-29, 02:54:05,VALID,915.373,VALID,0,VALID,96.5582,VALID,0,VALID,18.6109,VALID,103,VALID,0.475781,
2010-06-29, 02:55:05,VALID,915.375,VALID,0,VALID,96.5658,VALID,0,VALID,18.5914,VALID,103,VALID,0.771484,
2010-06-29, 02:56:05,VALID,915.333,VALID,0,VALID,96.6268,VALID,0,VALID,18.6124,VALID,102,VALID,0.797656,
2010-06-29, 02:57:05,VALID,915.334,VALID,0,VALID,96.642,VALID,0,VALID,18.5914,VALID,103,VALID,0.373047,
2010-06-29, 02:58:05,VALID,915.334,VALID,0,VALID,96.6954,VALID,0,VALID,18.6109,VALID,103,VALID,0.379687,
2010-06-29, 02:59:05,VALID,915.296,VALID,0,VALID,96.7107,VALID,0,VALID,18.6109,VALID,102,VALID,0.566016,
2010-06-29, 03:00:05,VALID,915.262,VALID,0,VALID,96.7183,VALID,0,VALID,18.6109,VALID,103,VALID,0.639844,
2010-06-29, 03:01:05,VALID,915.241,VALID,0,VALID,96.7716,VALID,0,VALID,18.6304,VALID,103,VALID,0.433984,
2010-06-29, 03:02:05,VALID,915.256,VALID,0,VALID,96.7564,VALID,0,VALID,18.6109,VALID,103,VALID,0.776172,
2010-06-29, 03:03:05,VALID,915.212,VALID,0,VALID,96.7869,VALID,0,VALID,18.6109,VALID,103,VALID,0.901172,
2010-06-29, 03:04:05,VALID,915.225,VALID,0,VALID,96.7411,VALID,0,VALID,18.6109,VALID,103,VALID,0.920313,
2010-06-29, 03:05:05,VALID,915.232,VALID,0,VALID,96.7107,VALID,0,VALID,18.6109,VALID,103,VALID,0.735547,
2010-06-29, 03:06:05,VALID,915.234,VALID,0,VALID,96.6649,VALID,0,VALID,18.6109,VALID,103,VALID,0.783594,
2010-06-29, 03:07:05,VALID,915.263,VALID,0,VALID,96.6497,VALID,0,VALID,18.6109,VALID,103,VALID,0.691016,
2010-06-29, 03:08:05,VALID,915.225,VALID,0,VALID,96.6344,VALID,0,VALID,18.6109,VALID,103,VALID,0.638672,
2010-06-29, 03:09:05,VALID,915.258,VALID,0,VALID,96.5582,VALID,0,VALID,18.5914,VALID,103,VALID,0.973047,
2010-06-29, 03:10:05,VALID,915.238,VALID,0,VALID,96.5048,VALID,0,VALID,18.5525,VALID,104,VALID,1.01406,
2010-06-29, 03:11:05,VALID,915.249,VALID,0,VALID,96.4743,VALID,0,VALID,18.5525,VALID,117,VALID,1.075,
2010-06-29, 03:12:05,VALID,915.209,VALID,0,VALID,96.4362,VALID,0,VALID,18.5135,VALID,117,VALID,1.19336,
2010-06-29, 03:13:05,VALID,915.216,VALID,0,VALID,96.4362,VALID,0,VALID,18.5344,VALID,118,VALID,1.16758,
2010-06-29, 03:14:05,VALID,915.208,VALID,0,VALID,96.4133,VALID,0,VALID,18.5344,VALID,118,VALID,1.27734,
2010-06-29, 03:15:05,VALID,915.227,VALID,0,VALID,96.4133,VALID,0,VALID,18.494,VALID,132,VALID,1.09336,
2010-06-29, 03:16:05,VALID,915.19,VALID,0,VALID,96.4362,VALID,0,VALID,18.494,VALID,146,VALID,0.873828,
2010-06-29, 03:17:05,VALID,915.16,VALID,0,VALID,96.4362,VALID,0,VALID,18.4745,VALID,146,VALID,1.11133,
2010-06-29, 03:18:05,VALID,915.162,VALID,0,VALID,96.4667,VALID,0,VALID,18.4745,VALID,146,VALID,0.933984,
2010-06-29, 03:19:05,VALID,915.155,VALID,0,VALID,96.4667,VALID,0,VALID,18.455,VALID,146,VALID,0.751562,
2010-06-29, 03:20:05,VALID,915.131,VALID,0,VALID,96.5124,VALID,0,VALID,18.4355,VALID,146,VALID,0.8125,
2010-06-29, 03:21:05,VALID,915.105,VALID,0,VALID,96.5277,VALID,0,VALID,18.4355,VALID,146,VALID,1.0375,
2010-06-29, 03:22:05,VALID,915.124,VALID,0,VALID,96.5429,VALID,0,VALID,18.4564,VALID,146,VALID,0.69375,
2010-06-29, 03:23:05,VALID,915.109,VALID,0,VALID,96.5506,VALID,0,VALID,18.4564,VALID,146,VALID,0.625391,
2010-06-29, 03:24:05,VALID,915.086,VALID,0,VALID,96.5506,VALID,0,VALID,18.4355,VALID,146,VALID,0.875781,
2010-06-29, 03:25:05,VALID,915.102,VALID,0,VALID,96.4972,VALID,0,VALID,18.4355,VALID,146,VALID,0.970703,
2010-06-29, 03:26:05,VALID,915.107,VALID,0,VALID,96.4438,VALID,0,VALID,18.416,VALID,146,VALID,1.12969,
2010-06-29, 03:27:05,VALID,915.097,VALID,0,VALID,96.4362,VALID,0,VALID,18.4174,VALID,145,VALID,0.901563,
2010-06-29, 03:28:05,VALID,915.13,VALID,0,VALID,96.3905,VALID,0,VALID,18.3965,VALID,145,VALID,0.98125,
2010-06-29, 03:29:05,VALID,915.142,VALID,0,VALID,96.4362,VALID,0,VALID,18.377,VALID,145,VALID,0.644141,
2010-06-29, 03:30:05,VALID,915.143,VALID,0,VALID,96.4286,VALID,0,VALID,18.338,VALID,145,VALID,0.618359,
2010-06-29, 03:31:05,VALID,915.125,VALID,0,VALID,96.4515,VALID,0,VALID,18.3394,VALID,145,VALID,0.202734,
2010-06-29, 03:32:05,VALID,915.114,VALID,0,VALID,96.4896,VALID,0,VALID,18.3185,VALID,145,VALID,0.390234,
2010-06-29, 03:33:05,VALID,915.114,VALID,0,VALID,96.5353,VALID,0,VALID,18.299,VALID,145,VALID,0.175391,
2010-06-29, 03:34:05,VALID,915.119,VALID,0,VALID,96.5506,VALID,0,VALID,18.2796,VALID,145,VALID,0.1125,
2010-06-29, 03:35:05,VALID,915.076,VALID,0,VALID,96.5887,VALID,0,VALID,18.2601,VALID,145,VALID,0.457422,
2010-06-29, 03:36:05,VALID,915.091,VALID,0,VALID,96.5963,VALID,0,VALID,18.2615,VALID,145,VALID,0.533984,
2010-06-29, 03:37:05,VALID,915.047,VALID,0,VALID,96.5658,VALID,0,VALID,18.2615,VALID,145,VALID,0.685156,
2010-06-29, 03:38:05,VALID,915.038,VALID,0,VALID,96.5277,VALID,0,VALID,18.2211,VALID,145,VALID,0.322656,
2010-06-29, 03:39:05,VALID,915.07,VALID,0,VALID,96.5048,VALID,0,VALID,18.2225,VALID,145,VALID,0.216797,
2010-06-29, 03:40:05,VALID,915.075,VALID,0,VALID,96.5277,VALID,0,VALID,18.203,VALID,145,VALID,0.432422,
2010-06-29, 03:41:05,VALID,915.042,VALID,0,VALID,96.5734,VALID,0,VALID,18.1821,VALID,145,VALID,0.692578,
2010-06-29, 03:42:05,VALID,915.056,VALID,0,VALID,96.6039,VALID,0,VALID,18.1835,VALID,145,VALID,0.817187,
2010-06-29, 03:43:05,VALID,915.05,VALID,0,VALID,96.642,VALID,0,VALID,18.1821,VALID,145,VALID,0.824219,
2010-06-29, 03:44:05,VALID,915.021,VALID,0,VALID,96.6649,VALID,0,VALID,18.2225,VALID,145,VALID,0.605859,